Torna al catalogo

STARLINK-30958

AttivoComunicazioniVLEO
NORAD 58457·PAYLOAD·🇺🇸 United States

Lanciato Nov 28, 2023 da Cape Canaveral Space Force Station

Loading…

Prossimi Passaggi (prossime 24 ore)

TLE

AggiornatoSource: CelesTrak SupGP

Epoca: Sep 14, 2026, 21:59 UTC

1 58457C 23183W   26257.91645833  .00060054  00000+0  21752-2 0  2577
2 58457  43.0044  52.6322 0001592 273.9130 243.7594 15.27548034    12

Traccia STARLINK-30958 in tempo reale con AllMySat

Download on the App Store